Location: Antioch Baptist Church
(32.6696°N, 85.7327°W)
Time: 12:30:10
(UTC+00:00)

COSMOS 2441 - Pass Details

Date: 14 July 2020
Orbit: 707 x 732 km, 98.0° (Epoch: 09 August)

Event Time Altitude Azimuth Distance (km) Brightness Sun altitude
Rises 09:29:54 0° 7° (N) 3,113 8.4 -14.3°
Reaches altitude 10° 09:32:11 10° 5° (N) 2,188 7.5 -14.0°
Maximum altitude 09:36:54 63° 285° (WNW) 791 4.4 -13.2°
Enters shadow 09:40:56 14° 206° (SSW) 1,906 6.0 -12.5°
